Year,Month,Day,Hour,Minute,Value (Times are PST for temperature in C)
2008,07,01,00,00,18.20
2008,07,01,00,01,18.20
2008,07,01,00,02,18.20
2008,07,01,00,03,18.20
2008,07,01,00,04,18.20
2008,07,01,00,05,18.20
2008,07,01,00,06,18.30
2008,07,01,00,07,18.30
2008,07,01,00,08,18.30
2008,07,01,00,09,18.30
2008,07,01,00,10,18.30
2008,07,01,00,11,18.30
2008,07,01,00,12,18.30
2008,07,01,00,13,18.30
2008,07,01,00,14,18.30
2008,07,01,00,15,18.30
2008,07,01,00,16,18.30
2008,07,01,00,17,18.20
2008,07,01,00,18,18.20
2008,07,01,00,19,18.20
2008,07,01,00,20,18.20
2008,07,01,00,21,18.20
2008,07,01,00,22,18.20
2008,07,01,00,23,18.20
2008,07,01,00,24,18.20
2008,07,01,00,25,18.20
2008,07,01,00,26,18.20
2008,07,01,00,27,18.20
2008,07,01,00,28,18.20
2008,07,01,00,29,18.20
2008,07,01,00,30,18.20
2008,07,01,00,31,18.20
2008,07,01,00,32,18.20
2008,07,01,00,33,18.20
2008,07,01,00,34,18.20
2008,07,01,00,35,18.20
2008,07,01,00,36,18.20
2008,07,01,00,37,18.10
2008,07,01,00,38,18.10
2008,07,01,00,39,18.00
2008,07,01,00,40,17.90
2008,07,01,00,41,17.90
2008,07,01,00,42,17.90
2008,07,01,00,43,17.90
2008,07,01,00,44,17.90
2008,07,01,00,45,17.90
2008,07,01,00,46,17.90
2008,07,01,00,47,17.80
2008,07,01,00,48,17.80
2008,07,01,00,49,17.80
2008,07,01,00,50,17.70
2008,07,01,00,51,17.70
2008,07,01,00,52,17.70
2008,07,01,00,53,17.70
2008,07,01,00,54,17.60
2008,07,01,00,55,17.60
2008,07,01,00,56,17.60
2008,07,01,00,57,17.60
2008,07,01,00,58,17.50
2008,07,01,00,59,17.50
2008,07,01,01,00,17.50
2008,07,01,01,01,17.40
2008,07,01,01,02,17.40
2008,07,01,01,03,17.40
2008,07,01,01,04,17.30
2008,07,01,01,05,17.30
2008,07,01,01,06,17.30
2008,07,01,01,07,17.30
2008,07,01,01,08,17.20
2008,07,01,01,09,17.20
2008,07,01,01,10,17.20
2008,07,01,01,11,17.20
2008,07,01,01,12,17.20
2008,07,01,01,13,17.20
2008,07,01,01,14,17.20
2008,07,01,01,15,17.00
2008,07,01,01,16,17.00
2008,07,01,01,17,17.00
2008,07,01,01,18,17.00
2008,07,01,01,19,16.90
2008,07,01,01,20,16.90
2008,07,01,01,21,16.90
2008,07,01,01,22,16.80
2008,07,01,01,23,16.80
2008,07,01,01,24,16.70
2008,07,01,01,25,16.70
2008,07,01,01,26,16.60
2008,07,01,01,27,16.60
2008,07,01,01,28,16.50
2008,07,01,01,29,16.40
2008,07,01,01,30,16.40
2008,07,01,01,31,16.40
2008,07,01,01,32,16.30
2008,07,01,01,33,16.30
2008,07,01,01,34,16.20
2008,07,01,01,35,16.20
2008,07,01,01,36,16.20
2008,07,01,01,37,16.20
2008,07,01,01,38,16.10
2008,07,01,01,39,16.10
2008,07,01,01,40,16.10
2008,07,01,01,41,16.10
2008,07,01,01,42,16.10
2008,07,01,01,43,16.10
2008,07,01,01,44,16.10
2008,07,01,01,45,16.10
2008,07,01,01,46,16.10
2008,07,01,01,47,16.10
2008,07,01,01,48,16.10
2008,07,01,01,49,16.10
2008,07,01,01,50,16.10
2008,07,01,01,51,16.10
2008,07,01,01,52,16.10
2008,07,01,01,53,16.10
2008,07,01,01,54,16.10
2008,07,01,01,55,16.10
2008,07,01,01,56,16.10
2008,07,01,01,57,16.10
2008,07,01,01,58,16.10
2008,07,01,01,59,16.10
2008,07,01,02,00,16.00
2008,07,01,02,01,15.90
2008,07,01,02,02,15.90
2008,07,01,02,03,15.90
2008,07,01,02,04,15.80
2008,07,01,02,05,15.80
2008,07,01,02,06,15.80
2008,07,01,02,07,15.80
2008,07,01,02,08,15.80
2008,07,01,02,09,15.80
2008,07,01,02,10,15.80
2008,07,01,02,11,15.80
2008,07,01,02,12,15.80
2008,07,01,02,13,15.70
2008,07,01,02,14,15.60
2008,07,01,02,15,15.50
2008,07,01,02,16,15.50
2008,07,01,02,17,15.40
2008,07,01,02,18,15.30
2008,07,01,02,19,15.30
2008,07,01,02,20,15.30
2008,07,01,02,21,15.20
2008,07,01,02,22,15.00
2008,07,01,02,23,15.00
2008,07,01,02,24,14.90
2008,07,01,02,25,14.90
2008,07,01,02,26,14.80
2008,07,01,02,27,14.80
2008,07,01,02,28,14.70
2008,07,01,02,29,14.60
2008,07,01,02,30,14.60
2008,07,01,02,31,14.60
2008,07,01,02,32,14.50
2008,07,01,02,33,14.50
2008,07,01,02,34,14.50
2008,07,01,02,35,14.50
2008,07,01,02,36,14.40
2008,07,01,02,37,14.40
2008,07,01,02,38,14.40
2008,07,01,02,39,14.30
2008,07,01,02,40,14.30
2008,07,01,02,41,14.30
2008,07,01,02,42,14.20
2008,07,01,02,43,14.20
2008,07,01,02,44,14.20
2008,07,01,02,45,14.20
2008,07,01,02,46,14.20
2008,07,01,02,47,14.20
2008,07,01,02,48,14.20
2008,07,01,02,49,14.20
2008,07,01,02,50,14.20
2008,07,01,02,51,14.20
2008,07,01,02,52,14.20
2008,07,01,02,53,14.20
2008,07,01,02,54,14.20
2008,07,01,02,55,14.20
2008,07,01,02,56,14.20
2008,07,01,02,57,14.20
2008,07,01,02,58,14.20
2008,07,01,02,59,14.20
2008,07,01,03,00,14.20
2008,07,01,03,01,14.20
2008,07,01,03,02,14.20
2008,07,01,03,03,14.20
2008,07,01,03,04,14.20
2008,07,01,03,05,14.20
2008,07,01,03,06,14.20
2008,07,01,03,07,14.20
2008,07,01,03,08,14.20
2008,07,01,03,09,14.20
2008,07,01,03,10,14.20
2008,07,01,03,11,14.20
2008,07,01,03,12,14.20
2008,07,01,03,13,14.20
2008,07,01,03,14,14.20
2008,07,01,03,15,14.30
2008,07,01,03,16,14.30
2008,07,01,03,17,14.30
2008,07,01,03,18,14.30
2008,07,01,03,19,14.30
2008,07,01,03,20,14.30
2008,07,01,03,21,14.30
2008,07,01,03,22,14.40
2008,07,01,03,23,14.40
2008,07,01,03,24,14.40
2008,07,01,03,25,14.40
2008,07,01,03,26,14.40
2008,07,01,03,27,14.40
2008,07,01,03,28,14.40
2008,07,01,03,29,14.40
2008,07,01,03,30,14.40
2008,07,01,03,31,14.40
2008,07,01,03,32,14.40
2008,07,01,03,33,14.40
2008,07,01,03,34,14.40
2008,07,01,03,35,14.40
2008,07,01,03,36,14.40
2008,07,01,03,37,14.40
2008,07,01,03,38,14.40
2008,07,01,03,39,14.40
2008,07,01,03,40,14.40
2008,07,01,03,41,14.40
2008,07,01,03,42,14.40
2008,07,01,03,43,14.40
2008,07,01,03,44,14.40
2008,07,01,03,45,14.50
2008,07,01,03,46,14.50
2008,07,01,03,47,14.50
2008,07,01,03,48,14.50
2008,07,01,03,49,14.50
2008,07,01,03,50,14.50
2008,07,01,03,51,14.50
2008,07,01,03,52,14.50
2008,07,01,03,53,14.50
2008,07,01,03,54,14.50
2008,07,01,03,55,14.50
2008,07,01,03,56,14.50
2008,07,01,03,57,14.50
2008,07,01,03,58,14.50
2008,07,01,03,59,14.50
2008,07,01,04,00,14.50
2008,07,01,04,01,14.50
2008,07,01,04,02,14.50
2008,07,01,04,03,14.50
2008,07,01,04,04,14.50
2008,07,01,04,05,14.50
2008,07,01,04,06,14.50
2008,07,01,04,07,14.40
2008,07,01,04,08,14.40
2008,07,01,04,09,14.40
2008,07,01,04,10,14.40
2008,07,01,04,11,14.40
2008,07,01,04,12,14.40
2008,07,01,04,13,14.40
2008,07,01,04,14,14.30
2008,07,01,04,15,14.30
2008,07,01,04,16,14.30
2008,07,01,04,17,14.30
2008,07,01,04,18,14.30
2008,07,01,04,19,14.30
2008,07,01,04,20,14.30
2008,07,01,04,21,14.30
2008,07,01,04,22,14.30
2008,07,01,04,23,14.30
2008,07,01,04,24,14.30
2008,07,01,04,25,14.30
2008,07,01,04,26,14.30
2008,07,01,04,27,14.30
2008,07,01,04,28,14.20
2008,07,01,04,29,14.20
2008,07,01,04,30,14.20
2008,07,01,04,31,14.20
2008,07,01,04,32,14.20
2008,07,01,04,33,14.20
2008,07,01,04,34,14.20
2008,07,01,04,35,14.20
2008,07,01,04,36,14.20
2008,07,01,04,37,14.20
2008,07,01,04,38,14.20
2008,07,01,04,39,14.20
2008,07,01,04,40,14.20
2008,07,01,04,41,14.20
2008,07,01,04,42,14.20
2008,07,01,04,43,14.20
2008,07,01,04,44,14.20
2008,07,01,04,45,14.20
2008,07,01,04,46,14.20
2008,07,01,04,47,14.20
2008,07,01,04,48,14.10
2008,07,01,04,49,14.10
2008,07,01,04,50,14.10
2008,07,01,04,51,14.00
2008,07,01,04,52,14.00
2008,07,01,04,53,14.00
2008,07,01,04,54,13.90
2008,07,01,04,55,13.90
2008,07,01,04,56,13.90
2008,07,01,04,57,13.80
2008,07,01,04,58,13.80
2008,07,01,04,59,13.70
2008,07,01,05,00,13.70
2008,07,01,05,01,13.70
2008,07,01,05,02,13.70
2008,07,01,05,03,13.70
2008,07,01,05,04,13.70
2008,07,01,05,05,13.70
2008,07,01,05,06,13.60
2008,07,01,05,07,13.60
2008,07,01,05,08,13.60
2008,07,01,05,09,13.60
2008,07,01,05,10,13.60
2008,07,01,05,11,13.60
2008,07,01,05,12,13.60
2008,07,01,05,13,13.50
2008,07,01,05,14,13.50
2008,07,01,05,15,13.50
2008,07,01,05,16,13.50
2008,07,01,05,17,13.50
2008,07,01,05,18,13.50
2008,07,01,05,19,13.40
2008,07,01,05,20,13.40
2008,07,01,05,21,13.40
2008,07,01,05,22,13.40
2008,07,01,05,23,13.40
2008,07,01,05,24,13.40
2008,07,01,05,25,13.40
2008,07,01,05,26,13.40
2008,07,01,05,27,13.30
2008,07,01,05,28,13.30
2008,07,01,05,29,13.30
2008,07,01,05,30,13.30
2008,07,01,05,31,13.30
2008,07,01,05,32,13.30
2008,07,01,05,33,13.30
2008,07,01,05,34,13.30
2008,07,01,05,35,13.30
2008,07,01,05,36,13.30
2008,07,01,05,37,13.30
2008,07,01,05,38,13.30
2008,07,01,05,39,13.30
2008,07,01,05,40,13.40
2008,07,01,05,41,13.40
2008,07,01,05,42,13.30
2008,07,01,05,43,13.30
2008,07,01,05,44,13.30
2008,07,01,05,45,13.30
2008,07,01,05,46,13.40
2008,07,01,05,47,13.40
2008,07,01,05,48,13.40
2008,07,01,05,49,13.40
2008,07,01,05,50,13.40
2008,07,01,05,51,13.30
2008,07,01,05,52,13.40
2008,07,01,05,53,13.40
2008,07,01,05,54,13.40
2008,07,01,05,55,13.40
2008,07,01,05,56,13.40
2008,07,01,05,57,13.40
2008,07,01,05,58,13.40
2008,07,01,05,59,13.40
2008,07,01,06,00,13.40
2008,07,01,06,01,13.40
2008,07,01,06,02,13.40
2008,07,01,06,03,13.50
2008,07,01,06,04,13.50
2008,07,01,06,05,13.50
2008,07,01,06,06,13.50
2008,07,01,06,07,13.50
2008,07,01,06,08,13.50
2008,07,01,06,09,13.60
2008,07,01,06,10,13.60
2008,07,01,06,11,13.60
2008,07,01,06,12,13.60
2008,07,01,06,13,13.60
2008,07,01,06,14,13.60
2008,07,01,06,15,13.60
2008,07,01,06,16,13.60
2008,07,01,06,17,13.60
2008,07,01,06,18,13.60
2008,07,01,06,19,13.60
2008,07,01,06,20,13.70
2008,07,01,06,21,13.70
2008,07,01,06,22,13.70
2008,07,01,06,23,13.70
2008,07,01,06,24,13.70
2008,07,01,06,25,13.70
2008,07,01,06,26,13.70
2008,07,01,06,27,13.70
2008,07,01,06,28,13.70
2008,07,01,06,29,13.70
2008,07,01,06,30,13.70
2008,07,01,06,31,13.70
2008,07,01,06,32,13.70
2008,07,01,06,33,13.70
2008,07,01,06,34,13.80
2008,07,01,06,35,13.80
2008,07,01,06,36,13.80
2008,07,01,06,37,13.80
2008,07,01,06,38,13.80
2008,07,01,06,39,13.80
2008,07,01,06,40,13.90
2008,07,01,06,41,13.90
2008,07,01,06,42,13.90
2008,07,01,06,43,13.90
2008,07,01,06,44,13.90
2008,07,01,06,45,14.00
2008,07,01,06,46,14.00
2008,07,01,06,47,14.00
2008,07,01,06,48,14.10
2008,07,01,06,49,14.10
2008,07,01,06,50,14.20
2008,07,01,06,51,14.20
2008,07,01,06,52,14.20
2008,07,01,06,53,14.20
2008,07,01,06,54,14.20
2008,07,01,06,55,14.20
2008,07,01,06,56,14.30
2008,07,01,06,57,14.40
2008,07,01,06,58,14.40
2008,07,01,06,59,14.50
2008,07,01,07,00,14.50
2008,07,01,07,01,14.60
2008,07,01,07,02,14.60
2008,07,01,07,03,14.70
2008,07,01,07,04,14.70
2008,07,01,07,05,14.70
2008,07,01,07,06,14.80
2008,07,01,07,07,14.80
2008,07,01,07,08,14.80
2008,07,01,07,09,14.80
2008,07,01,07,10,14.80
2008,07,01,07,11,14.90
2008,07,01,07,12,14.90
2008,07,01,07,13,14.90
2008,07,01,07,14,14.90
2008,07,01,07,15,14.90
2008,07,01,07,16,14.90
2008,07,01,07,17,14.90
2008,07,01,07,18,14.80
2008,07,01,07,19,14.80
2008,07,01,07,20,14.80
2008,07,01,07,21,14.80
2008,07,01,07,22,14.80
2008,07,01,07,23,14.80
2008,07,01,07,24,14.80
2008,07,01,07,25,14.80
2008,07,01,07,26,14.80
2008,07,01,07,27,14.80
2008,07,01,07,28,14.80
2008,07,01,07,29,14.80
2008,07,01,07,30,14.80
2008,07,01,07,31,14.80
2008,07,01,07,32,14.80
2008,07,01,07,33,14.80
2008,07,01,07,34,14.80
2008,07,01,07,35,14.80
2008,07,01,07,36,14.80
2008,07,01,07,37,14.80
2008,07,01,07,38,14.80
2008,07,01,07,39,14.80
2008,07,01,07,40,14.90
2008,07,01,07,41,14.90
2008,07,01,07,42,15.00
2008,07,01,07,43,15.00
2008,07,01,07,44,15.10
2008,07,01,07,45,15.10
2008,07,01,07,46,15.20
2008,07,01,07,47,15.20
2008,07,01,07,48,15.20
2008,07,01,07,49,15.20
2008,07,01,07,50,15.30
2008,07,01,07,51,15.30
2008,07,01,07,52,15.30
2008,07,01,07,53,15.30
2008,07,01,07,54,15.30
2008,07,01,07,55,15.30
2008,07,01,07,56,15.30
2008,07,01,07,57,15.30
2008,07,01,07,58,15.30
2008,07,01,07,59,15.10
2008,07,01,08,00,15.10
2008,07,01,08,01,15.10
2008,07,01,08,02,15.00
2008,07,01,08,03,15.00
2008,07,01,08,04,15.00
2008,07,01,08,05,15.00
2008,07,01,08,06,14.90
2008,07,01,08,07,14.90
2008,07,01,08,08,14.80
2008,07,01,08,09,14.80
2008,07,01,08,10,14.80
2008,07,01,08,11,14.80
2008,07,01,08,12,14.90
2008,07,01,08,13,14.90
2008,07,01,08,14,14.80
2008,07,01,08,15,14.80
2008,07,01,08,16,14.80
2008,07,01,08,17,14.80
2008,07,01,08,18,14.80
2008,07,01,08,19,14.80
2008,07,01,08,20,14.90
2008,07,01,08,21,14.90
2008,07,01,08,22,15.00
2008,07,01,08,23,15.10
2008,07,01,08,24,15.20
2008,07,01,08,25,15.30
2008,07,01,08,26,15.40
2008,07,01,08,27,15.40
2008,07,01,08,28,15.40
2008,07,01,08,29,15.50
2008,07,01,08,30,15.50
2008,07,01,08,31,15.50
2008,07,01,08,32,15.50
2008,07,01,08,33,15.40
2008,07,01,08,34,15.40
2008,07,01,08,35,15.50
2008,07,01,08,36,15.50
2008,07,01,08,37,15.60
2008,07,01,08,38,15.60
2008,07,01,08,39,15.80
2008,07,01,08,40,15.80
2008,07,01,08,41,15.90
2008,07,01,08,42,16.00
2008,07,01,08,43,16.10
2008,07,01,08,44,16.10
2008,07,01,08,45,16.10
2008,07,01,08,46,16.10
2008,07,01,08,47,16.10
2008,07,01,08,48,16.10
2008,07,01,08,49,16.20
2008,07,01,08,50,16.20
2008,07,01,08,51,16.20
2008,07,01,08,52,16.30
2008,07,01,08,53,16.30
2008,07,01,08,54,16.30
2008,07,01,08,55,16.30
2008,07,01,08,56,16.30
2008,07,01,08,57,16.30
2008,07,01,08,58,16.30
2008,07,01,08,59,16.30
2008,07,01,09,00,16.30
2008,07,01,09,01,16.40
2008,07,01,09,02,16.40
2008,07,01,09,03,16.40
2008,07,01,09,04,16.30
2008,07,01,09,05,16.30
2008,07,01,09,06,16.30
2008,07,01,09,07,16.40
2008,07,01,09,08,16.40
2008,07,01,09,09,16.40
2008,07,01,09,10,16.40
2008,07,01,09,11,16.40
2008,07,01,09,12,16.40
2008,07,01,09,13,16.40
2008,07,01,09,14,16.40
2008,07,01,09,15,16.30
2008,07,01,09,16,16.20
2008,07,01,09,17,16.20
2008,07,01,09,18,16.20
2008,07,01,09,19,16.20
2008,07,01,09,20,16.20
2008,07,01,09,21,16.20
2008,07,01,09,22,16.20
2008,07,01,09,23,16.30
2008,07,01,09,24,16.40
2008,07,01,09,25,16.40
2008,07,01,09,26,16.50
2008,07,01,09,27,16.60
2008,07,01,09,28,16.60
2008,07,01,09,29,16.60
2008,07,01,09,30,16.60
2008,07,01,09,31,16.60
2008,07,01,09,32,16.60
2008,07,01,09,33,16.70
2008,07,01,09,34,16.90
2008,07,01,09,35,17.00
2008,07,01,09,36,17.00
2008,07,01,09,37,17.00
2008,07,01,09,38,17.00
2008,07,01,09,39,17.10
2008,07,01,09,40,17.20
2008,07,01,09,41,17.10
2008,07,01,09,42,17.20
2008,07,01,09,43,17.20
2008,07,01,09,44,17.30
2008,07,01,09,45,17.30
2008,07,01,09,46,17.40
2008,07,01,09,47,17.30
2008,07,01,09,48,17.30
2008,07,01,09,49,17.30
2008,07,01,09,50,17.40
2008,07,01,09,51,17.40
2008,07,01,09,52,17.40
2008,07,01,09,53,17.40
2008,07,01,09,54,17.40
2008,07,01,09,55,17.40
2008,07,01,09,56,17.40
2008,07,01,09,57,17.40
2008,07,01,09,58,17.50
2008,07,01,09,59,17.50
2008,07,01,10,00,17.60
2008,07,01,10,01,17.70
2008,07,01,10,02,17.80
2008,07,01,10,03,17.80
2008,07,01,10,04,17.90
2008,07,01,10,05,17.90
2008,07,01,10,06,17.90
2008,07,01,10,07,17.90
2008,07,01,10,08,17.90
2008,07,01,10,09,17.90
2008,07,01,10,10,17.90
2008,07,01,10,11,17.90
2008,07,01,10,12,18.00
2008,07,01,10,13,18.10
2008,07,01,10,14,18.10
2008,07,01,10,15,18.10
2008,07,01,10,16,18.10
2008,07,01,10,17,18.20
2008,07,01,10,18,18.00
2008,07,01,10,19,17.80
2008,07,01,10,20,17.50
2008,07,01,10,21,17.50
2008,07,01,10,22,17.50
2008,07,01,10,23,17.40
2008,07,01,10,24,17.30
2008,07,01,10,25,17.30
2008,07,01,10,26,17.30
2008,07,01,10,27,17.30
2008,07,01,10,28,17.30
2008,07,01,10,29,17.30
2008,07,01,10,30,17.30
2008,07,01,10,31,17.40
2008,07,01,10,32,17.50
2008,07,01,10,33,17.50
2008,07,01,10,34,17.50
2008,07,01,10,35,17.40
2008,07,01,10,36,17.40
2008,07,01,10,37,17.30
2008,07,01,10,38,17.30
2008,07,01,10,39,17.30
2008,07,01,10,40,17.30
2008,07,01,10,41,17.30
2008,07,01,10,42,17.30
2008,07,01,10,43,17.30
2008,07,01,10,44,17.30
2008,07,01,10,45,17.30
2008,07,01,10,46,17.30
2008,07,01,10,47,17.30
2008,07,01,10,48,17.30
2008,07,01,10,49,17.30
2008,07,01,10,50,17.30
2008,07,01,10,51,17.30
2008,07,01,10,52,17.20
2008,07,01,10,53,17.30
2008,07,01,10,54,17.30
2008,07,01,10,55,17.30
2008,07,01,10,56,17.40
2008,07,01,10,57,17.40
2008,07,01,10,58,17.40
2008,07,01,10,59,17.30
2008,07,01,11,00,17.20
2008,07,01,11,01,17.00
2008,07,01,11,02,17.00
2008,07,01,11,03,17.00
2008,07,01,11,04,17.00
2008,07,01,11,05,17.00
2008,07,01,11,06,17.10
2008,07,01,11,07,17.10
2008,07,01,11,08,17.10
2008,07,01,11,09,17.00
2008,07,01,11,10,17.00
2008,07,01,11,11,17.00
2008,07,01,11,12,17.00
2008,07,01,11,13,17.00
2008,07,01,11,14,17.00
2008,07,01,11,15,17.00
2008,07,01,11,16,17.10
2008,07,01,11,17,17.20
2008,07,01,11,18,17.20
2008,07,01,11,19,17.20
2008,07,01,11,20,17.30
2008,07,01,11,21,17.50
2008,07,01,11,22,17.60
2008,07,01,11,23,17.70
2008,07,01,11,24,17.70
2008,07,01,11,25,18.00
2008,07,01,11,26,18.20
2008,07,01,11,27,18.40
2008,07,01,11,28,18.40
2008,07,01,11,29,18.40
2008,07,01,11,30,18.50
2008,07,01,11,31,18.50
2008,07,01,11,32,18.40
2008,07,01,11,33,18.40
2008,07,01,11,34,18.50
2008,07,01,11,35,18.60
2008,07,01,11,36,18.70
2008,07,01,11,37,18.90
2008,07,01,11,38,18.90
2008,07,01,11,39,18.90
2008,07,01,11,40,19.00
2008,07,01,11,41,19.10
2008,07,01,11,42,19.00
2008,07,01,11,43,18.90
2008,07,01,11,44,18.90
2008,07,01,11,45,19.00
2008,07,01,11,46,19.10
2008,07,01,11,47,19.10
2008,07,01,11,48,19.10
2008,07,01,11,49,19.10
2008,07,01,11,50,19.00
2008,07,01,11,51,18.90
2008,07,01,11,52,18.90
2008,07,01,11,53,18.90
2008,07,01,11,54,18.90
2008,07,01,11,55,18.90
2008,07,01,11,56,18.90
2008,07,01,11,57,19.00
2008,07,01,11,58,19.10
2008,07,01,11,59,19.10
2008,07,01,12,00,19.10
2008,07,01,12,01,19.10
2008,07,01,12,02,19.10
2008,07,01,12,03,19.10
2008,07,01,12,04,19.10
2008,07,01,12,05,19.00
2008,07,01,12,06,18.90
2008,07,01,12,07,18.90
2008,07,01,12,08,18.90
2008,07,01,12,09,18.90
2008,07,01,12,10,18.90
2008,07,01,12,11,19.00
2008,07,01,12,12,19.10
2008,07,01,12,13,19.10
2008,07,01,12,14,19.20
2008,07,01,12,15,19.20
2008,07,01,12,16,19.10
2008,07,01,12,17,19.10
2008,07,01,12,18,19.20
2008,07,01,12,19,19.30
2008,07,01,12,20,19.30
2008,07,01,12,21,19.30
2008,07,01,12,22,19.30
2008,07,01,12,23,19.30
2008,07,01,12,24,19.30
2008,07,01,12,25,19.40
2008,07,01,12,26,19.50
2008,07,01,12,27,19.70
2008,07,01,12,28,19.90
2008,07,01,12,29,20.10
2008,07,01,12,30,20.20
2008,07,01,12,31,20.20
2008,07,01,12,32,20.20
2008,07,01,12,33,20.20
2008,07,01,12,34,20.20
2008,07,01,12,35,20.20
2008,07,01,12,36,20.20
2008,07,01,12,37,20.20
2008,07,01,12,38,20.30
2008,07,01,12,39,20.40
2008,07,01,12,40,20.50
2008,07,01,12,41,20.50
2008,07,01,12,42,20.60
2008,07,01,12,43,20.50
2008,07,01,12,44,20.30
2008,07,01,12,45,20.20
2008,07,01,12,46,20.30
2008,07,01,12,47,20.50
2008,07,01,12,48,20.60
2008,07,01,12,49,20.80
2008,07,01,12,50,21.10
2008,07,01,12,51,21.30
2008,07,01,12,52,21.30
2008,07,01,12,53,21.30
2008,07,01,12,54,21.40
2008,07,01,12,55,21.40
2008,07,01,12,56,21.30
2008,07,01,12,57,21.30
2008,07,01,12,58,21.20
2008,07,01,12,59,21.10
2008,07,01,13,00,21.10
2008,07,01,13,01,21.00
2008,07,01,13,02,21.00
2008,07,01,13,03,21.00
2008,07,01,13,04,20.70
2008,07,01,13,05,20.60
2008,07,01,13,06,20.40
2008,07,01,13,07,20.20
2008,07,01,13,08,20.20
2008,07,01,13,09,20.20
2008,07,01,13,10,20.20
2008,07,01,13,11,20.20
2008,07,01,13,12,20.20
2008,07,01,13,13,20.20
2008,07,01,13,14,20.20
2008,07,01,13,15,20.10
2008,07,01,13,16,20.10
2008,07,01,13,17,20.10
2008,07,01,13,18,20.00
2008,07,01,13,19,19.90
2008,07,01,13,20,19.90
2008,07,01,13,21,19.80
2008,07,01,13,22,19.70
2008,07,01,13,23,19.80
2008,07,01,13,24,19.80
2008,07,01,13,25,19.90
2008,07,01,13,26,19.90
2008,07,01,13,27,19.90
2008,07,01,13,28,19.90
2008,07,01,13,29,19.90
2008,07,01,13,30,19.80
2008,07,01,13,31,19.70
2008,07,01,13,32,19.70
2008,07,01,13,33,19.60
2008,07,01,13,34,19.60
2008,07,01,13,35,19.80
2008,07,01,13,36,19.90
2008,07,01,13,37,20.20
2008,07,01,13,38,20.20
2008,07,01,13,39,20.40
2008,07,01,13,40,20.40
2008,07,01,13,41,20.40
2008,07,01,13,42,20.40
2008,07,01,13,43,20.40
2008,07,01,13,44,20.40
2008,07,01,13,45,20.40
2008,07,01,13,46,20.40
2008,07,01,13,47,20.40
2008,07,01,13,48,20.40
2008,07,01,13,49,20.40
2008,07,01,13,50,20.40
2008,07,01,13,51,20.40
2008,07,01,13,52,20.40
2008,07,01,13,53,20.40
2008,07,01,14,26,21.30
2008,07,01,14,27,21.20
2008,07,01,14,28,21.00
2008,07,01,14,29,20.90
2008,07,01,14,30,20.80
2008,07,01,14,31,20.70
2008,07,01,14,32,20.60
2008,07,01,14,33,20.70
2008,07,01,14,34,20.70
2008,07,01,14,35,20.80
2008,07,01,14,36,20.80
2008,07,01,14,37,20.90
2008,07,01,14,38,20.90
2008,07,01,14,39,20.90
2008,07,01,14,40,21.00
2008,07,01,14,41,21.00
2008,07,01,14,42,20.90
2008,07,01,14,43,20.90
2008,07,01,14,44,21.00
2008,07,01,14,45,21.00
2008,07,01,14,46,21.10
2008,07,01,14,47,21.10
2008,07,01,14,48,21.10
2008,07,01,14,49,21.10
2008,07,01,14,50,21.10
2008,07,01,14,51,21.20
2008,07,01,14,52,21.30
2008,07,01,14,53,21.30
2008,07,01,14,54,21.30
2008,07,01,14,55,21.30
2008,07,01,14,56,21.30
2008,07,01,14,57,21.30
2008,07,01,14,58,21.40
2008,07,01,14,59,21.50
2008,07,01,15,00,21.60
2008,07,01,15,01,21.60
2008,07,01,15,02,21.70
2008,07,01,15,03,21.70
2008,07,01,15,04,21.70
2008,07,01,15,05,21.70
2008,07,01,15,06,21.70
2008,07,01,15,07,21.80
2008,07,01,15,08,21.90
2008,07,01,15,09,21.90
2008,07,01,15,10,22.00
2008,07,01,15,11,22.10
2008,07,01,15,12,22.10
2008,07,01,15,13,22.20
2008,07,01,15,14,22.10
2008,07,01,15,15,22.10
2008,07,01,15,16,22.00
2008,07,01,15,17,22.10
2008,07,01,15,18,22.20
2008,07,01,15,19,22.30
2008,07,01,15,20,22.40
2008,07,01,15,21,22.50
2008,07,01,15,22,22.60
2008,07,01,15,23,22.70
2008,07,01,15,24,22.80
2008,07,01,15,25,22.80
2008,07,01,15,26,22.90
2008,07,01,15,27,22.90
2008,07,01,15,28,22.90
2008,07,01,15,29,22.90
2008,07,01,15,30,22.80
2008,07,01,15,31,22.80
2008,07,01,15,32,22.70
2008,07,01,15,33,22.60
2008,07,01,15,34,22.60
2008,07,01,15,35,22.40
2008,07,01,15,36,22.40
2008,07,01,15,37,22.40
2008,07,01,15,38,22.30
2008,07,01,15,39,22.30
2008,07,01,15,40,22.30
2008,07,01,15,41,22.30
2008,07,01,15,42,22.20
2008,07,01,15,43,22.20
2008,07,01,15,44,22.30
2008,07,01,15,45,22.30
2008,07,01,15,46,22.30
2008,07,01,15,47,22.30
2008,07,01,15,48,22.40
2008,07,01,15,49,22.40
2008,07,01,15,50,22.40
2008,07,01,15,51,22.40
2008,07,01,15,52,22.50
2008,07,01,15,53,22.70
2008,07,01,15,54,22.80
2008,07,01,15,55,22.90
2008,07,01,15,56,22.90
2008,07,01,15,57,22.90
2008,07,01,15,58,22.90
2008,07,01,15,59,22.70
2008,07,01,16,00,22.60
2008,07,01,16,01,22.50
2008,07,01,16,02,22.50
2008,07,01,16,03,22.50
2008,07,01,16,04,22.50
2008,07,01,16,05,22.50
2008,07,01,16,06,22.40
2008,07,01,16,07,22.40
2008,07,01,16,08,22.40
2008,07,01,16,09,22.50
2008,07,01,16,10,22.60
2008,07,01,16,11,22.60
2008,07,01,16,12,22.60
2008,07,01,16,13,22.60
2008,07,01,16,14,22.70
2008,07,01,16,15,22.70
2008,07,01,16,16,22.70
2008,07,01,16,17,22.70
2008,07,01,16,18,22.60
2008,07,01,16,19,22.50
2008,07,01,16,20,22.40
2008,07,01,16,21,22.40
2008,07,01,16,22,22.40
2008,07,01,16,23,22.40
2008,07,01,16,24,22.40
2008,07,01,16,25,22.40
2008,07,01,16,26,22.40
2008,07,01,16,27,22.50
2008,07,01,16,28,22.50
2008,07,01,16,29,22.60
2008,07,01,16,30,22.60
2008,07,01,16,31,22.60
2008,07,01,16,32,22.60
2008,07,01,16,33,22.70
2008,07,01,16,34,22.80
2008,07,01,16,35,22.80
2008,07,01,16,36,22.90
2008,07,01,16,37,23.00
2008,07,01,16,38,23.00
2008,07,01,16,39,22.90
2008,07,01,16,40,22.90
2008,07,01,16,41,22.90
2008,07,01,16,42,22.90
2008,07,01,16,43,22.90
2008,07,01,16,44,22.90
2008,07,01,16,45,22.80
2008,07,01,16,46,22.70
2008,07,01,16,47,22.60
2008,07,01,16,48,22.60
2008,07,01,16,49,22.60
2008,07,01,16,50,22.60
2008,07,01,16,51,22.80
2008,07,01,16,52,22.80
2008,07,01,16,53,22.90
2008,07,01,16,54,22.90
2008,07,01,16,55,22.90
2008,07,01,16,56,22.90
2008,07,01,16,57,22.80
2008,07,01,16,58,22.80
2008,07,01,16,59,22.80
2008,07,01,17,00,22.70
2008,07,01,17,01,22.70
2008,07,01,17,02,22.60
2008,07,01,17,03,22.60
2008,07,01,17,04,22.70
2008,07,01,17,05,22.70
2008,07,01,17,06,22.70
2008,07,01,17,07,22.70
2008,07,01,17,08,22.70
2008,07,01,17,09,22.80
2008,07,01,17,10,22.90
2008,07,01,17,11,22.90
2008,07,01,17,12,22.90
2008,07,01,17,13,22.90
2008,07,01,17,14,22.90
2008,07,01,17,15,22.90
2008,07,01,17,16,22.90
2008,07,01,17,17,22.90
2008,07,01,17,18,22.90
2008,07,01,17,19,22.90
2008,07,01,17,20,22.80
2008,07,01,17,21,22.80
2008,07,01,17,22,22.80
2008,07,01,17,23,22.80
2008,07,01,17,24,22.80
2008,07,01,17,25,22.90
2008,07,01,17,26,22.90
2008,07,01,17,27,23.00
2008,07,01,17,28,23.10
2008,07,01,17,29,23.20
2008,07,01,17,30,23.20
2008,07,01,17,31,23.30
2008,07,01,17,32,23.30
2008,07,01,17,33,23.30
2008,07,01,17,34,23.30
2008,07,01,17,35,23.30
2008,07,01,17,36,23.30
2008,07,01,17,37,23.30
2008,07,01,17,38,23.30
2008,07,01,17,39,23.20
2008,07,01,17,40,23.20
2008,07,01,17,41,23.20
2008,07,01,17,42,23.20
2008,07,01,17,43,23.20
2008,07,01,17,44,23.20
2008,07,01,17,45,23.30
2008,07,01,17,46,23.30
2008,07,01,17,47,23.30
2008,07,01,17,48,23.30
2008,07,01,17,49,23.30
2008,07,01,17,50,23.40
2008,07,01,17,51,23.30